Terminal Aerodrome Forecast
Issued by NWS Duluth, MN

Home | Current Version | Previous Version | Text Only | Print | Product List | Glossary On
Versions: 1 2 3 4 5 6 7 8 9 10 11 12 13 14 15 16 17 18 19 20 21 22 23 24 25 26 27 28 29 30 31 32 33 34 35 36 37 38 39 40 41 42 43 44 45 46
444
FTUS43 KDLH 251602 AAB
TAFDLH
TAF AMD
KDLH 251602Z 2516/2612 10014G20KT P6SM BKN006 OVC028
     FM252000 09014G22KT P6SM BKN011 OVC030
     FM260000 08013KT P6SM BKN025
     FM260600 08010KT P6SM VCSH OVC003=

USA.gov is the U.S. government's official web portal to all federal, state and local government web resources and services.